Location: Bronschhofen
(47.4788°N, 9.0353°E)
Time: 20:28:00
(UTC+00:00)

GP-B - Pass Details

Date: 20 May 2022
Orbit: 630 x 634 km, 89.8° (Epoch: 06 July)

Event Time Altitude Azimuth Distance (km) Brightness Sun altitude
Rises 00:19:24 0° 8° (N) 2,944 8.1 -21.3°
Reaches altitude 10° 00:21:46 10° 16° (NNE) 2,030 6.9 -21.2°
Maximum altitude 00:25:57 39° 85° (E) 953 4.1 -21.0°
Enters shadow 00:27:38 28° 132° (SE) 1,192 4.3 -20.9°
